Location: Sperry Observatory
(40.6664°N, 74.3236°W)
Time: 17:41:28
(UTC-04:00)

Amateur Radio Satellites - All Passes

Search period start: 23 April 2017 17:11
Search period end: 24 April 2017 17:11
Location: Sperry Observatory, 40.6664°N, 74.3236°W

Satellite Date Start Highest point End Downlink Frequencies (MHz)
Time Altitude Azimuth
ITUPSAT 1 23 Apr 17:17:22 17:20:40 19° 296° (WNW) 17:23:57 437.325
XW-2F 23 Apr 17:22:41 17:24:58 16° 67° (ENE) 17:27:16 145.980 - 146.000
YUBILEINY 23 Apr 17:37:51 17:45:32 36° 275° (W) 17:53:15 435.215
CUTE-I 23 Apr 17:39:14 17:43:58 33° 67° (ENE) 17:48:41 437.470
KKS-1 23 Apr 17:42:54 17:47:22 88° 113° (ESE) 17:51:47 437.445
NUDT-PHONESAT 23 Apr 17:44:35 17:47:31 23° 70° (ENE) 17:50:27 437.300
CUBESAT XI-V 23 Apr 17:45:09 17:49:54 88° 108° (ESE) 17:54:36 437.345
ISS 23 Apr 17:52:10 17:54:00 14° 230° (SW) 17:55:49 437.550
RS-15 23 Apr 18:06:41 18:18:41 66° 246° (WSW) 18:30:06 29.354- 29.394
XW-2D 23 Apr 18:08:15 18:11:56 62° 75° (ENE) 18:15:39 145.860 - 145.880
DOVE 4 23 Apr 18:08:51 18:14:09 84° 258° (WSW) 18:19:28 437.250
HO-68 23 Apr 18:14:09 18:19:44 26° 59° (ENE) 18:25:21 435.675
XW-2B 23 Apr 18:15:03 18:18:45 74° 78° (ENE) 18:22:31 145.730 - 145.750
LilacSat-2 23 Apr 18:21:45 18:25:30 85° 258° (WSW) 18:29:18 437.200
STARS 23 Apr 18:24:56 18:29:18 75° 285° (WNW) 18:33:38 437.465
XW-2C 23 Apr 18:26:47 18:30:30 77° 258° (WSW) 18:34:16 145.795 - 145.815
KAITUO 1B 23 Apr 18:33:21 18:37:02 81° 256° (WSW) 18:40:44 145.475/437.950
XW-2A 23 Apr 18:51:10 18:53:45 21° 70° (ENE) 18:56:21 145.665 - 145.685
XW-2F 23 Apr 18:55:27 18:58:50 33° 263° (W) 19:02:15 145.980 - 146.000
NUDT-PHONESAT 23 Apr 19:18:30 19:21:21 21° 265° (W) 19:24:13 437.300
CUTE-I 23 Apr 19:19:13 19:23:57 31° 264° (W) 19:28:41 437.470
CUTE 1.7 + AOD 2 23 Apr 19:24:46 19:28:53 58° 75° (ENE) 19:33:03 437.475
CUBESAT XI-V 23 Apr 19:25:41 19:26:31 10° 300° (WNW) 19:27:19 437.345
AAUSAT CUBESAT 2 23 Apr 19:35:41 19:38:58 23° 69° (ENE) 19:42:18 437.432
O/OREOS (USA 219) 23 Apr 19:45:22 19:47:27 13° 52° (NE) 19:49:32 437.305
Oscar 11 23 Apr 19:46:45 19:48:39 13° 63° (ENE) 19:50:33 .
UWE-3 23 Apr 19:48:22 19:52:06 29° 70° (ENE) 19:55:46 435.000/436.395/437.385
SEEDS 23 Apr 19:51:33 19:55:42 76° 77° (ENE) 19:59:55 437.485
CUBEBUG 2 23 Apr 19:53:24 19:57:44 56° 74° (ENE) 20:01:56 437.445
HO-68 23 Apr 19:59:49 20:06:53 65° 257° (WSW) 20:14:02 435.675
NO-84 23 Apr 20:04:39 20:07:28 21° 129° (SE) 20:10:07 435.350 FM
STRAND 1 23 Apr 20:09:11 20:14:12 54° 100° (E) 20:19:10 437.568
RS-15 23 Apr 20:23:49 20:28:30 13° 267° (W) 20:33:08 29.354- 29.394
XW-2A 23 Apr 20:23:57 20:26:27 19° 265° (W) 20:28:55 145.665 - 145.685
M-CUBED/EXP-1 PRIME 23 Apr 20:40:10 20:44:29 82° 292° (WNW) 20:48:26 437.505
ZACube-1 23 Apr 20:51:13 20:55:28 86° 75° (ENE) 20:59:39 437.345
OBJECT BX 23 Apr 20:51:45 20:53:04 12° 65° (ENE) 20:54:23 145.990 - 145.960
DELFI C3 23 Apr 20:51:54 20:54:34 18° 67° (ENE) 20:57:16 145.870
AO-73 23 Apr 21:00:13 21:04:26 84° 256° (WSW) 21:08:37 145.935
CUTE 1.7 + AOD 2 23 Apr 21:03:44 21:05:05 11° 270° (W) 21:06:25 437.475
AAUSAT CUBESAT 2 23 Apr 21:10:45 21:14:18 27° 264° (W) 21:17:53 437.432
Oscar 11 23 Apr 21:20:01 21:24:15 60° 260° (W) 21:28:32 .
O/OREOS (USA 219) 23 Apr 21:22:51 21:27:26 75° 250° (WSW) 21:31:58 437.305
UWE-3 23 Apr 21:25:06 21:28:33 23° 265° (W) 21:31:56 435.000/436.395/437.385
CUBEBUG 2 23 Apr 21:32:45 21:34:38 12° 269° (W) 21:36:31 437.445
PRISM 23 Apr 21:33:17 21:34:39 11° 91° (E) 21:36:01 437.425
NO-84 23 Apr 21:41:31 21:44:53 39° 323° (NW) 21:47:58 435.350 FM
STRAND 1 23 Apr 21:49:27 21:52:57 19° 297° (WNW) 21:56:25 437.568
LO-87 23 Apr 22:06:37 22:08:16 13° 66° (ENE) 22:09:56 145.935 - 145.965
ESTCUBE 1 23 Apr 22:14:46 22:16:24 12° 61° (ENE) 22:18:01 437.505/2401.250
TIGRISAT 23 Apr 22:17:01 22:20:17 21° 94° (E) 22:23:34 435.000
OBJECT BX 23 Apr 22:22:51 22:26:20 45° 261° (W) 22:29:51 145.990 - 145.960
AO-85 23 Apr 22:25:17 22:29:13 62° 56° (NE) 22:33:19 145.980
DELFI C3 23 Apr 22:25:27 22:29:05 34° 263° (W) 22:32:46 145.870
UNISAT 6 23 Apr 22:36:38 22:40:38 38° 98° (E) 22:44:39 437.425
PRISM 23 Apr 23:06:11 23:10:16 56° 286° (WNW) 23:14:19 437.425
BEESAT 2 23 Apr 23:13:41 23:16:20 16° 44° (NE) 23:18:57 435.950
FO-29 23 Apr 23:14:29 23:19:40 65° 102° (ESE) 23:25:04 435.910
BEESAT 3 23 Apr 23:21:45 23:25:36 42° 53° (NE) 23:29:23 437.485
POLYITAN 1 23 Apr 23:32:34 23:32:56 10° 90° (E) 23:33:17 437.675
QB50P2 23 Apr 23:37:25 23:39:29 13° 91° (E) 23:41:32 145.880/145.840
LO-87 23 Apr 23:37:53 23:41:20 41° 261° (W) 23:44:49 145.935 - 145.965
DX 1 23 Apr 23:45:33 23:47:16 12° 62° (ENE) 23:48:59 434.975-435.025
ESTCUBE 1 23 Apr 23:48:05 23:52:33 73° 257° (WSW) 23:57:05 437.505/2401.250
TIGRISAT 23 Apr 23:53:14 23:57:00 31° 290° (WNW) 00:00:48 435.000
NANOSAT C BR1 24 Apr 00:01:48 00:05:00 21° 94° (E) 00:08:11 145.865
AIST 2D 24 Apr 00:02:13 00:05:36 45° 99° (E) 00:09:00 435.315
SPROUT 24 Apr 00:07:51 00:11:57 46° 73° (ENE) 00:16:03 437.525
AO-85 24 Apr 00:07:53 00:09:08 11° 251° (WSW) 00:10:25 145.980
UNISAT 6 24 Apr 00:14:07 00:17:05 19° 294° (WNW) 00:20:03 437.425
VELOX 1 24 Apr 00:15:49 00:20:13 64° 74° (ENE) 00:24:40 145.980
EO-79 24 Apr 00:26:48 00:30:49 44° 99° (E) 00:34:50 145.935-145.965
DUCHIFAT 1 24 Apr 00:32:50 00:36:49 42° 99° (E) 00:40:47 145.980
50 SAT 24 Apr 00:33:26 00:36:50 55° 74° (ENE) 00:40:16 437.505
BEESAT 2 24 Apr 00:50:27 00:54:26 56° 241° (WSW) 00:58:22 435.950
UKube-1 24 Apr 00:52:36 00:56:41 42° 71° (ENE) 01:00:47 .
BEESAT 3 24 Apr 01:00:14 01:02:51 17° 249° (WSW) 01:05:25 437.485
FO-29 24 Apr 01:01:21 01:04:17 15° 299° (WNW) 01:07:16 435.910
POLYITAN 1 24 Apr 01:04:58 01:09:07 64° 285° (WNW) 01:13:16 437.675
QB50P2 24 Apr 01:11:29 01:15:32 49° 287° (WNW) 01:19:35 145.880/145.840
DX 1 24 Apr 01:18:31 01:22:52 68° 258° (WSW) 01:27:15 434.975-435.025
NANOSAT C BR1 24 Apr 01:37:03 01:40:44 30° 290° (WNW) 01:44:24 145.865
AIST 2D 24 Apr 01:37:33 01:38:24 11° 295° (WNW) 01:39:16 435.315
SPROUT 24 Apr 01:45:41 01:48:06 15° 268° (W) 01:50:30 437.525
BUGSAT 1 24 Apr 01:47:56 01:51:58 81° 284° (WNW) 01:55:57 437.445
Gurwin Techsat 1B 24 Apr 01:48:55 01:52:35 19° 92° (E) 01:56:13 435.225
VELOX 1 24 Apr 01:55:33 01:57:04 11° 270° (W) 01:58:35 145.980
EO-79 24 Apr 02:03:42 02:06:13 16° 295° (WNW) 02:08:43 145.935-145.965
BEESAT 24 Apr 02:07:27 02:11:12 24° 66° (ENE) 02:14:57 436.000
DUCHIFAT 1 24 Apr 02:09:34 02:12:08 16° 295° (WNW) 02:14:42 145.980
Oscar 19 24 Apr 02:12:15 02:17:21 53° 100° (E) 02:22:25 437.125/150
MOZHAYETS 4 24 Apr 02:30:07 02:33:07 18° 65° (ENE) 02:36:08
UKube-1 24 Apr 02:30:07 02:32:54 17° 267° (W) 02:35:40 .
PCSat 24 Apr 02:36:11 02:40:58 33° 110° (ESE) 02:45:46 145.827
NO-84 24 Apr 02:39:10 02:40:46 14° 26° (NNE) 02:42:20 435.350 FM
ITUPSAT 1 24 Apr 02:44:48 02:49:26 54° 72° (ENE) 02:54:04 437.325
AO-7 24 Apr 03:17:39 03:23:48 22° 93° (E) 03:29:54 .
Gurwin Techsat 1B 24 Apr 03:27:39 03:32:51 54° 288° (WNW) 03:37:59 435.225
ITAMSAT 1 24 Apr 03:31:37 03:35:53 25° 95° (E) 03:40:06 435.822/435.867
BEESAT 24 Apr 03:44:23 03:48:45 36° 262° (W) 03:53:09 436.000
Oscar 19 24 Apr 03:52:34 03:56:15 20° 297° (WNW) 03:59:56 437.125/150
MOZHAYETS 4 24 Apr 04:05:33 04:09:55 46° 261° (W) 04:14:18
NO-84 24 Apr 04:15:45 04:18:36 66° 223° (SW) 04:21:24 435.350 FM
PCSat 24 Apr 04:19:18 04:24:16 36° 307° (NW) 04:29:17 145.827
ITUPSAT 1 24 Apr 04:24:46 04:27:34 15° 268° (W) 04:30:23 437.325
KKS-1 24 Apr 04:40:09 04:44:38 77° 74° (ENE) 04:49:07 437.445
YUBILEINY 24 Apr 04:40:52 04:49:17 57° 90° (E) 04:57:42 435.215
CUBESAT XI-V 24 Apr 04:47:43 04:52:20 82° 78° (ENE) 04:57:01 437.345
AO-7 24 Apr 05:08:58 05:17:17 77° 290° (WNW) 05:25:35 .
ITAMSAT 1 24 Apr 05:10:39 05:15:25 38° 291° (WNW) 05:20:10 435.822/435.867
STARS 24 Apr 05:20:41 05:25:07 89° 268° (W) 05:29:33 437.465
M-CUBED/EXP-1 PRIME 24 Apr 05:52:52 05:55:14 14° 57° (ENE) 05:57:38 437.505
LilacSat-2 24 Apr 05:57:48 05:58:28 10° 90° (E) 05:59:09 437.200
CUTE-I 24 Apr 05:58:15 06:00:25 12° 89° (E) 06:02:36 437.470
XW-2C 24 Apr 06:01:42 06:02:52 11° 91° (E) 06:04:02 145.795 - 145.815
DOVE 4 24 Apr 06:09:15 06:13:12 26° 94° (E) 06:16:55 437.250
RS-15 24 Apr 06:20:14 06:28:31 22° 98° (E) 06:36:55 29.354- 29.394
XW-2F 24 Apr 06:27:53 06:30:56 23° 95° (E) 06:33:59 145.980 - 146.000
YUBILEINY 24 Apr 06:39:01 06:46:29 31° 291° (WNW) 06:54:00 435.215
NUDT-PHONESAT 24 Apr 06:48:21 06:51:44 32° 97° (E) 06:55:06 437.300
SO-50 24 Apr 06:59:08 07:03:25 39° 116° (ESE) 07:07:41 436.795
AO-7 24 Apr 07:03:38 07:08:44 18° 311° (NW) 07:13:51 .
CUTE 1.7 + AOD 2 24 Apr 07:12:40 07:13:24 10° 89° (E) 07:14:08 437.475
XW-2D 24 Apr 07:14:54 07:18:43 82° 284° (WNW) 07:22:32 145.860 - 145.880
XW-2B 24 Apr 07:21:47 07:25:34 70° 284° (WNW) 07:29:21 145.730 - 145.750
M-CUBED/EXP-1 PRIME 24 Apr 07:24:29 07:29:02 74° 254° (WSW) 07:33:43 437.505
STRAND 1 24 Apr 07:24:37 07:29:42 75° 74° (ENE) 07:34:49 437.568
HO-68 24 Apr 07:28:30 07:34:18 26° 94° (E) 07:40:04 435.675
LilacSat-2 24 Apr 07:29:18 07:33:02 52° 286° (WNW) 07:36:46 437.200
XW-2C 24 Apr 07:33:38 07:37:19 48° 286° (WNW) 07:40:59 145.795 - 145.815
CUTE-I 24 Apr 07:35:43 07:41:02 78° 286° (WNW) 07:46:20 437.470
SEEDS 24 Apr 07:37:14 07:39:16 13° 91° (E) 07:41:18 437.485
KAITUO 1B 24 Apr 07:38:39 07:42:19 52° 286° (WNW) 07:46:00 145.475/437.950
XW-2A 24 Apr 07:45:29 07:48:10 22° 96° (E) 07:50:52 145.665 - 145.685
CUBEBUG 2 24 Apr 07:46:44 07:47:49 11° 90° (E) 07:48:54 437.445
DOVE 4 24 Apr 07:46:48 07:50:51 29° 292° (WNW) 07:54:41 437.250
XW-2F 24 Apr 08:01:56 08:04:59 23° 290° (WNW) 08:08:01 145.980 - 146.000
NUDT-PHONESAT 24 Apr 08:23:03 08:25:23 16° 293° (WNW) 08:27:43 437.300
RS-15 24 Apr 08:27:06 08:39:09 86° 120° (ESE) 08:51:36 29.354- 29.394
SO-50 24 Apr 08:40:06 08:43:58 26° 313° (NW) 08:47:50 436.795
ZACube-1 24 Apr 08:40:40 08:43:17 16° 93° (E) 08:45:56 437.345
CUTE 1.7 + AOD 2 24 Apr 08:45:23 08:49:38 65° 285° (WNW) 08:53:52 437.475
AO-73 24 Apr 08:49:04 08:51:58 18° 93° (E) 08:54:54 145.935
AAUSAT CUBESAT 2 24 Apr 08:52:22 08:56:24 44° 98° (E) 09:00:24 437.432
Tancredo 1 24 Apr 08:54:45 08:57:24 26° 135° (SE) 09:00:04 437.200
ISS 24 Apr 08:54:50 08:57:23 21° 133° (SE) 08:59:55 437.550
STRAND 1 24 Apr 09:07:22 09:09:24 12° 270° (W) 09:11:27 437.568
Oscar 11 24 Apr 09:07:50 09:11:25 25° 95° (E) 09:14:59 .
SEEDS 24 Apr 09:11:06 09:15:15 51° 286° (WNW) 09:19:22 437.485
UWE-3 24 Apr 09:13:34 09:17:44 68° 101° (ESE) 09:21:56 435.000/436.395/437.385
HO-68 24 Apr 09:15:21 09:22:24 60° 291° (WNW) 09:29:26 435.675
TIGRISAT 24 Apr 09:15:42 09:18:49 19° 67° (ENE) 09:21:54 435.000
XW-2A 24 Apr 09:18:26 09:20:47 18° 291° (WNW) 09:23:07 145.665 - 145.685
CUTE-I 24 Apr 09:19:11 09:20:11 10° 303° (WNW) 09:21:11 437.470
CUBEBUG 2 24 Apr 09:20:43 09:24:47 58° 286° (WNW) 09:28:54 437.445
FO-29 24 Apr 09:26:44 09:32:05 29° 67° (ENE) 09:36:57 435.910
UNISAT 6 24 Apr 09:35:05 09:39:02 33° 70° (ENE) 09:42:56 437.425
OBJECT BX 24 Apr 09:52:57 09:55:04 15° 93° (E) 09:57:09 145.990 - 145.960
PRISM 24 Apr 09:54:29 09:58:38 86° 257° (WSW) 10:02:50 437.425
O/OREOS (USA 219) 24 Apr 09:58:07 10:00:13 13° 98° (E) 10:02:19 437.305
DELFI C3 24 Apr 10:02:41 10:06:09 28° 96° (E) 10:09:36 145.870
ZACube-1 24 Apr 10:15:48 10:19:44 41° 288° (WNW) 10:23:44 437.345
AO-73 24 Apr 10:24:28 10:28:19 36° 288° (WNW) 10:32:13 145.935
AAUSAT CUBESAT 2 24 Apr 10:28:56 10:31:29 16° 295° (WNW) 10:34:01 437.432
Tancredo 1 24 Apr 10:30:24 10:33:15 33° 332° (NNW) 10:36:07 437.200
ISS 24 Apr 10:30:33 10:33:40 42° 329° (NNW) 10:36:48 437.550
QB50P2 24 Apr 10:31:15 10:32:08 11° 62° (ENE) 10:33:02 145.880/145.840
AIST 2D 24 Apr 10:37:16 10:39:28 16° 68° (ENE) 10:41:41 435.315
RS-15 24 Apr 10:42:26 10:53:19 36° 326° (NW) 11:04:24 29.354- 29.394
Oscar 11 24 Apr 10:43:47 10:47:30 28° 291° (WNW) 10:51:13 .
TIGRISAT 24 Apr 10:51:07 10:55:15 38° 262° (W) 10:59:19 435.000
UWE-3 24 Apr 10:52:43 10:53:38 11° 297° (WNW) 10:54:32 435.000/436.395/437.385
NANOSAT C BR1 24 Apr 10:54:10 10:56:46 16° 65° (ENE) 10:59:22 145.865
LO-87 24 Apr 11:06:13 11:08:16 15° 93° (E) 11:10:18 145.935 - 145.965
HO-68 24 Apr 11:06:25 11:08:40 12° 311° (NW) 11:10:54 435.675
FO-29 24 Apr 11:10:48 11:17:00 43° 261° (W) 11:22:34 435.910
UNISAT 6 24 Apr 11:12:23 11:15:47 21° 266° (W) 11:19:09 437.425
EO-79 24 Apr 11:18:47 11:22:32 32° 70° (ENE) 11:26:18 145.935-145.965
PCSat 24 Apr 11:24:01 11:28:38 27° 49° (NE) 11:33:13 145.827
DUCHIFAT 1 24 Apr 11:24:15 11:27:56 30° 70° (ENE) 11:31:36 145.980
OBJECT BX 24 Apr 11:25:32 11:28:51 33° 288° (WNW) 11:32:09 145.990 - 145.960
O/OREOS (USA 219) 24 Apr 11:34:32 11:39:03 60° 295° (WNW) 11:43:38 437.305
DELFI C3 24 Apr 11:37:41 11:40:47 22° 292° (WNW) 11:43:51 145.870
ESTCUBE 1 24 Apr 11:41:18 11:45:00 24° 95° (E) 11:48:40 437.505/2401.250
POLYITAN 1 24 Apr 11:56:38 12:00:52 88° 78° (ENE) 12:05:06 437.675
QB50P2 24 Apr 12:03:06 12:07:20 72° 259° (WSW) 12:11:33 145.880/145.840
VELOX 1 24 Apr 12:08:08 12:09:56 12° 90° (E) 12:11:43 145.980
Tancredo 1 24 Apr 12:08:29 12:09:54 12° 351° (N) 12:11:18 437.200
ISS 24 Apr 12:08:57 12:10:48 14° 349° (NNW) 12:12:39 437.550
AIST 2D 24 Apr 12:09:28 12:12:28 27° 263° (W) 12:15:30 435.315
NANOSAT C BR1 24 Apr 12:28:06 12:32:07 43° 261° (W) 12:36:09 145.865
BUGSAT 1 24 Apr 12:36:43 12:40:51 64° 75° (ENE) 12:44:56 437.445
LO-87 24 Apr 12:38:36 12:41:48 31° 288° (WNW) 12:44:58 145.935 - 145.965
AO-85 24 Apr 12:40:15 12:43:30 21° 113° (ESE) 12:46:38 145.980
EO-79 24 Apr 12:55:09 12:58:20 21° 266° (W) 13:01:32 145.935-145.965
DUCHIFAT 1 24 Apr 13:00:20 13:03:36 22° 265° (W) 13:06:52 145.980
RS-15 24 Apr 13:02:08 13:11:06 22° 0° (N) 13:20:00 29.354- 29.394
PCSat 24 Apr 13:07:02 13:12:14 46° 247° (WSW) 13:17:22 145.827
DX 1 24 Apr 13:07:39 13:10:57 21° 94° (E) 13:14:13 434.975-435.025
Gurwin Techsat 1B 24 Apr 13:09:24 13:13:56 30° 67° (ENE) 13:18:30 435.225
ESTCUBE 1 24 Apr 13:17:46 13:21:48 32° 291° (WNW) 13:25:49 437.505/2401.250
Oscar 19 24 Apr 13:28:38 13:33:46 75° 74° (ENE) 13:38:57 437.125/150
SPROUT 24 Apr 13:29:18 13:33:33 85° 287° (WNW) 13:37:47 437.525
50 SAT 24 Apr 13:29:58 13:33:27 61° 101° (E) 13:36:52 437.505
VELOX 1 24 Apr 13:42:23 13:46:45 60° 286° (WNW) 13:51:05 145.980
Tancredo 1 24 Apr 13:45:18 13:46:52 13° 11° (NNE) 13:48:27 437.200
ISS 24 Apr 13:46:38 13:48:20 13° 9° (N) 13:50:02 437.550
UKube-1 24 Apr 14:15:24 14:19:44 82° 104° (ESE) 14:24:02 .
AO-7 24 Apr 14:16:19 14:23:22 33° 58° (ENE) 14:30:26 .
AO-85 24 Apr 14:19:45 14:23:42 36° 308° (NW) 14:27:28 145.980
BEESAT 2 24 Apr 14:41:41 14:44:57 25° 113° (ESE) 14:48:16 435.950
DX 1 24 Apr 14:43:15 14:47:12 34° 290° (WNW) 14:51:07 434.975-435.025
ITUPSAT 1 24 Apr 14:47:05 14:49:34 14° 91° (E) 14:52:02 437.325
BEESAT 3 24 Apr 14:48:01 14:51:56 84° 122° (ESE) 14:55:57 437.485
Gurwin Techsat 1B 24 Apr 14:48:56 14:53:45 35° 263° (W) 14:58:36 435.225
ITAMSAT 1 24 Apr 14:49:04 14:53:51 38° 69° (ENE) 14:58:38 435.822/435.867
YUBILEINY 24 Apr 14:51:44 14:58:57 27° 68° (ENE) 15:06:07 435.215
Oscar 19 24 Apr 15:11:26 15:13:37 13° 270° (W) 15:15:49 437.125/150
RS-15 24 Apr 15:17:41 15:28:48 36° 35° (NE) 15:39:29 29.354- 29.394
Tancredo 1 24 Apr 15:20:29 15:23:27 40° 30° (NNE) 15:26:24 437.200
ISS 24 Apr 15:22:30 15:25:32 35° 29° (NNE) 15:28:34 437.550
SO-50 24 Apr 15:30:33 15:34:39 33° 50° (NE) 15:38:42 436.795
BEESAT 24 Apr 15:44:10 15:48:52 56° 101° (E) 15:53:32 436.000
MOZHAYETS 4 24 Apr 16:00:33 16:04:54 40° 98° (E) 16:09:14
AO-7 24 Apr 16:07:32 16:15:40 59° 256° (WSW) 16:23:52 .
BEESAT 2 24 Apr 16:19:07 16:22:37 29° 311° (NW) 16:26:09 435.950
ITUPSAT 1 24 Apr 16:23:03 16:27:46 60° 287° (WNW) 16:32:28 437.325
BEESAT 3 24 Apr 16:28:27 16:30:06 12° 320° (NW) 16:31:46 437.485
ITAMSAT 1 24 Apr 16:29:08 16:33:23 25° 265° (W) 16:37:40 435.822/435.867
KKS-1 24 Apr 16:32:49 16:35:18 15° 92° (E) 16:37:47 437.445
CUBESAT XI-V 24 Apr 16:45:14 16:48:49 21° 93° (E) 16:52:22 437.345
YUBILEINY 24 Apr 16:47:45 16:56:23 65° 268° (W) 17:05:02 435.215
Tancredo 1 24 Apr 16:56:48 16:59:12 21° 227° (SW) 17:01:36 437.200
ISS 24 Apr 16:59:08 17:01:56 27° 225° (SW) 17:04:44 437.550
